Regional Weather Roundup
Issued by NWS

Home | Current Version | Previous Version | Graphics & Text | Print | Product List | Glossary On
Versions: 1 2 3 4 5 6 7 8 9 10 11 12 13 14 15 16 17 18 19 20 21 22 23 24 25 26 27 28 29 30 31 32 33 34 35 36 37 38 39 40 41 42 43 44 45 46 47 48 49 50
000
ASUS44 KMEG 221800
RWRTN
TENNESSEE HOURLY STATE WEATHER ROUNDUP
NATIONAL WEATHER SERVICE MEMPHIS TN
100 PM CDT MON SEP 22 2014

TNZ002-004-019-021-049-052-054-088>092-221900-
WEST TENNESSEE

CITY           SKY/WX    TMP DP  RH WIND       PRES   REMARKS
MEMPHIS INTL   MOSUNNY   75  51  43 NE9       30.21F
NWS MEMPHIS      N/A     72 N/A N/A MISG        N/A
JACKSON        SUNNY     75  51  43 NE12G20   30.22S
DYERSBURG      MOSUNNY   72  48  43 NE8       30.24S
UNION CITY     SUNNY     72  52  49 N6        30.22F
PARIS          SUNNY     70  48  46 N9        30.23F
SAVANNAH       SUNNY     75  52  43 NE8       30.19F
$$

TNZ008-025-027-028-033-062-065-066-221900-
NORTH MIDDLE TENNESSEE

CITY           SKY/WX    TMP DP  RH WIND       PRES   REMARKS
NASHVILLE      MOSUNNY   73  48  41 N13G18    30.20F
CLARKSVILLE    SUNNY     72  49  44 N16G22    30.23S
COOKEVILLE     MOSUNNY   70  52  52 N8        30.19F
CROSSVILLE     MOSUNNY   68  46  45 N12G17    30.20S
$$

TNZ061-075-076-078-094-096-097-221900-
SOUTH MIDDLE TENNESSEE

CITY           SKY/WX    TMP DP  RH WIND       PRES   REMARKS
WINCHESTER     MOSUNNY   72  50  46 N13       30.18S
SHELBYVILLE    SUNNY     73  52  46 N16       30.19F
$$

TNZ017-018-042-046-047-221900-
NORTHEAST TENNESSEE

CITY           SKY/WX    TMP DP  RH WIND       PRES   REMARKS
TRI CITIES     MOSUNNY   69  44  40 N9        30.15S
ELIZABETHTON   PTCLDY    66  48  52 N6        30.15S
$$

TNZ012-013-036-069-073-074-221900-
CENTRAL EAST TENNESSEE

CITY           SKY/WX    TMP DP  RH WIND       PRES   REMARKS
KNOXVILLE      MOSUNNY   72  46  39 NE10      30.14S
OAK RIDGE      SUNNY     72  47  40 VRB3      30.17F
GATLINBURG     CLEAR     70  45  40 VRB6      30.14F
$$

TNZ083-085-099-221900-
SOUTHEAST TENNESSEE

CITY           SKY/WX    TMP DP  RH WIND       PRES   REMARKS
CHATTANOOGA    MOSUNNY   74  48  39 NE13G21   30.14F
$$

SKY/WX REPORTED AS FAIR MEANS FEW OR NO CLOUDS BELOW
12 THOUSAND FEET.




USA.gov is the U.S. government's official web portal to all federal, state and local government web resources and services.